| time (UTC) | temp F | wind direction | speed MPH | gust MPH | rain 1hr in | rain 24hr in | rain mn in | humidity % | barometer mb |
| 20260509040033 | 42 | 181 | 4.0 | 8.0 | 0.00 | 0.00 | 0.00 | 65 | 1010.9 |
| 20260509034533 | 42 | 251 | 3.0 | 7.0 | 0.00 | 0.00 | 0.00 | 67 | 1010.9 |
| 20260509033032 | 42 | 219 | 2.0 | 5.0 | 0.00 | 0.00 | 0.00 | 70 | 1010.8 |
| 20260509031532 | 42 | 155 | 3.0 | 5.0 | 0.00 | 0.00 | 0.00 | 70 | 1011.0 |
| 20260509030037 | 43 | 158 | 3.0 | 7.0 | 0.00 | 0.00 | 0.00 | 70 | 1011.0 |
| 20260509024531 | 43 | 179 | 3.0 | 7.0 | 0.00 | 0.00 | 0.00 | 71 | 1011.2 |
| 20260509023037 | 43 | 178 | 3.0 | 7.0 | 0.00 | 0.00 | 0.00 | 71 | 1011.3 |
| 20260509021530 | 43 | 180 | 2.0 | 5.0 | 0.00 | 0.00 | 0.00 | 71 | 1011.3 |
| 20260509020029 | 43 | 202 | 2.0 | 5.0 | 0.00 | 0.00 | 0.00 | 71 | 1011.3 |
| 20260509014529 | 43 | 203 | 2.0 | 6.0 | 0.00 | 0.00 | 0.00 | 71 | 1011.3 |
| 20260509013031 | 43 | 169 | 3.0 | 5.0 | 0.00 | 0.00 | 0.00 | 70 | 1011.2 |
| 20260509011528 | 43 | 225 | 1.0 | 3.0 | 0.00 | 0.00 | 0.00 | 68 | 1011.1 |
| 20260509010027 | 44 | 198 | 2.0 | 4.0 | 0.00 | 0.00 | 0.00 | 66 | 1010.8 |
| 20260509004535 | 45 | 206 | 3.0 | 5.0 | 0.00 | 0.00 | 0.00 | 66 | 1010.7 |
| 20260509003025 | 46 | 226 | 3.0 | 7.0 | 0.00 | 0.00 | 0.00 | 65 | 1010.7 |
| 20260509001525 | 46 | 224 | 4.0 | 8.0 | 0.00 | 0.00 | 0.00 | 64 | 1010.6 |
| 20260509000034 | 48 | 212 | 2.0 | 5.0 | 0.00 | 0.00 | 0.00 | 61 | 1010.5 |
| 20260508234527 | 49 | 217 | 4.0 | 12.0 | 0.00 | 0.00 | 0.00 | 54 | 1010.4 |
| 20260508233023 | 50 | 238 | 8.0 | 13.0 | 0.00 | 0.00 | 0.00 | 52 | 1010.4 |
| 20260508231523 | 50 | 228 | 6.0 | 14.0 | 0.00 | 0.00 | 0.00 | 53 | 1010.3 |
| 20260508230022 | 50 | 229 | 10.0 | 18.0 | 0.00 | 0.00 | 0.00 | 51 | 1010.4 |
| 20260508224521 | 51 | 234 | 7.0 | 16.0 | 0.00 | 0.00 | 0.00 | 52 | 1010.4 |
| 20260508223024 | 50 | 236 | 8.0 | 12.0 | 0.00 | 0.00 | 0.00 | 51 | 1010.5 |
| 20260508221520 | 51 | 213 | 8.0 | 20.0 | 0.00 | 0.00 | 0.00 | 48 | 1010.5 |
| 20260508220019 | 51 | 217 | 9.0 | 17.0 | 0.00 | 0.00 | 0.00 | 47 | 1010.5 |
| 20260508214518 | 51 | 217 | 13.0 | 19.0 | 0.00 | 0.00 | 0.00 | 47 | 1010.4 |
| 20260508213022 | 51 | 236 | 11.0 | 19.0 | 0.00 | 0.00 | 0.00 | 47 | 1010.5 |
| 20260508211518 | 51 | 210 | 13.0 | 19.0 | 0.00 | 0.00 | 0.00 | 47 | 1010.5 |
| 20260508210016 | 51 | 221 | 8.0 | 18.0 | 0.00 | 0.00 | 0.00 | 50 | 1010.5 |
| 20260508204515 | 51 | 234 | 11.0 | 20.0 | 0.00 | 0.00 | 0.00 | 50 | 1010.6 |
| 20260508203015 | 51 | 280 | 10.0 | 19.0 | 0.00 | 0.00 | 0.00 | 51 | 1010.7 |
| 20260508201519 | 50 | 238 | 13.0 | 23.0 | 0.00 | 0.00 | 0.00 | 52 | 1010.8 |
| 20260508200019 | 51 | 234 | 17.0 | 23.0 | 0.00 | 0.00 | 0.00 | 51 | 1010.9 |
| 20260508194511 | 49 | 232 | 11.0 | 20.0 | 0.00 | 0.00 | 0.00 | 53 | 1010.9 |
| 20260508193016 | 51 | 209 | 12.0 | 20.0 | 0.00 | 0.00 | 0.00 | 52 | 1011.0 |
| 20260508191515 | 50 | 227 | 15.0 | 25.0 | 0.00 | 0.00 | 0.00 | 52 | 1011.1 |
| 20260508190011 | 51 | 240 | 12.0 | 22.0 | 0.00 | 0.00 | 0.00 | 52 | 1011.0 |
| 20260508184508 | 51 | 257 | 11.0 | 19.0 | 0.00 | 0.00 | 0.00 | 53 | 1011.0 |
| 20260508183005 | 50 | 229 | 10.0 | 20.0 | 0.00 | 0.00 | 0.00 | 55 | 1011.0 |
| 20260508181505 | 50 | 235 | 11.0 | 20.0 | 0.00 | 0.00 | 0.00 | 55 | 1011.2 |
| 20260508180004 | 49 | 229 | 16.0 | 23.0 | 0.00 | 0.00 | 0.00 | 54 | 1011.2 |
| 20260508174502 | 49 | 249 | 11.0 | 21.0 | 0.00 | 0.00 | 0.00 | 56 | 1011.1 |
| 20260508173003 | 50 | 245 | 9.0 | 17.0 | 0.00 | 0.00 | 0.00 | 54 | 1011.2 |
| 20260508171503 | 50 | 264 | 12.0 | 19.0 | 0.00 | 0.00 | 0.00 | 56 | 1011.3 |
| 20260508170001 | 48 | 274 | 10.0 | 17.0 | 0.00 | 0.00 | 0.00 | 59 | 1011.2 |
| 20260508164559 | 49 | 266 | 10.0 | 19.0 | 0.00 | 0.00 | 0.00 | 59 | 1011.2 |
| 20260508163105 | 49 | 264 | 8.0 | 16.0 | 0.00 | 0.00 | 0.00 | 60 | 1011.2 |
| 20260508161607 | 49 | 266 | 5.0 | 13.0 | 0.00 | 0.00 | 0.00 | 59 | 1011.3 |
| 20260508160059 | 50 | 270 | 8.0 | 15.0 | 0.00 | 0.00 | 0.00 | 59 | 1011.3 |
| 20260508154559 | 49 | 238 | 6.0 | 12.0 | 0.00 | 0.00 | 0.00 | 57 | 1011.3 |
| 20260508153056 | 50 | 276 | 5.0 | 14.0 | 0.00 | 0.00 | 0.00 | 56 | 1011.2 |
| 20260508151602 | 49 | 270 | 4.0 | 13.0 | 0.00 | 0.00 | 0.00 | 57 | 1011.4 |
| 20260508150053 | 49 | 294 | 4.0 | 12.0 | 0.00 | 0.00 | 0.00 | 53 | 1011.4 |
| 20260508144550 | 48 | 212 | 5.0 | 11.0 | 0.00 | 0.00 | 0.00 | 58 | 1011.5 |
| 20260508143050 | 47 | 280 | 7.0 | 13.0 | 0.00 | 0.00 | 0.00 | 60 | 1011.6 |
| 20260508141546 | 46 | 278 | 10.0 | 14.0 | 0.00 | 0.00 | 0.00 | 59 | 1011.6 |
| 20260508140045 | 46 | 270 | 6.0 | 13.0 | 0.00 | 0.00 | 0.00 | 60 | 1011.5 |
| 20260508134542 | 46 | 287 | 7.0 | 12.0 | 0.00 | 0.00 | 0.00 | 62 | 1011.4 |
| 20260508133055 | 45 | 254 | 8.0 | 12.0 | 0.00 | 0.00 | 0.00 | 61 | 1011.5 |
| 20260508131544 | 45 | 255 | 5.0 | 10.0 | 0.00 | 0.00 | 0.00 | 65 | 1011.6 |
| 20260508130035 | 44 | 275 | 5.0 | 10.0 | 0.00 | 0.00 | 0.00 | 65 | 1011.4 |
| 20260508124533 | 44 | 263 | 8.0 | 12.0 | 0.00 | 0.00 | 0.00 | 64 | 1011.3 |
| 20260508123043 | 43 | 265 | 7.0 | 12.0 | 0.00 | 0.00 | 0.00 | 67 | 1011.5 |
| 20260508121531 | 43 | 255 | 6.0 | 12.0 | 0.00 | 0.00 | 0.00 | 66 | 1011.5 |
| 20260508120030 | 42 | 256 | 6.0 | 11.0 | 0.00 | 0.00 | 0.00 | 68 | 1011.6 |
| 20260508114528 | 42 | 283 | 6.0 | 11.0 | 0.00 | 0.00 | 0.00 | 66 | 1011.4 |
| 20260508113028 | 42 | 255 | 5.0 | 8.0 | 0.00 | 0.00 | 0.00 | 68 | 1011.4 |
| 20260508111527 | 40 | 232 | 3.0 | 6.0 | 0.00 | 0.00 | 0.00 | 71 | 1011.4 |
| 20260508110025 | 40 | 285 | 3.0 | 8.0 | 0.00 | 0.00 | 0.00 | 69 | 1011.2 |
| 20260508104524 | 40 | 285 | 2.0 | 7.0 | 0.00 | 0.00 | 0.00 | 69 | 1011.2 |
| 20260508103022 | 39 | 245 | 3.0 | 8.0 | 0.00 | 0.00 | 0.00 | 71 | 1011.0 |
| 20260508101522 | 38 | 264 | 2.0 | 7.0 | 0.00 | 0.00 | 0.00 | 75 | 1010.8 |
| 20260508100025 | 37 | 231 | 2.0 | 4.0 | 0.00 | 0.00 | 0.00 | 75 | 1010.9 |
| 20260508094519 | 38 | 243 | 2.0 | 4.0 | 0.00 | 0.00 | 0.00 | 74 | 1010.7 |
| 20260508093023 | 37 | 216 | 1.0 | 3.0 | 0.00 | 0.00 | 0.00 | 74 | 1010.7 |
| 20260508091525 | 37 | 256 | 1.0 | 3.0 | 0.00 | 0.00 | 0.00 | 73 | 1010.7 |
| 20260508090021 | 38 | 215 | 0.0 | 3.0 | 0.00 | 0.00 | 0.00 | 73 | 1010.7 |
| 20260508084511 | 39 | 232 | 1.0 | 5.0 | 0.00 | 0.00 | 0.00 | 70 | 1010.7 |
| 20260508083010 | 39 | 259 | 1.0 | 5.0 | 0.00 | 0.00 | 0.00 | 70 | 1010.7 |
| 20260508081507 | 40 | 247 | 2.0 | 6.0 | 0.00 | 0.00 | 0.00 | 70 | 1010.7 |
| 20260508080005 | 40 | 252 | 3.0 | 6.0 | 0.00 | 0.00 | 0.00 | 69 | 1010.6 |
| 20260508074502 | 40 | 273 | 3.0 | 8.0 | 0.00 | 0.00 | 0.00 | 68 | 1010.5 |
| 20260508073000 | 41 | 254 | 3.0 | 10.0 | 0.00 | 0.00 | 0.00 | 67 | 1010.4 |
| 20260508071601 | 41 | 304 | 4.0 | 9.0 | 0.00 | 0.00 | 0.00 | 67 | 1010.4 |
| 20260508070107 | 41 | 304 | 4.0 | 8.0 | 0.00 | 0.00 | 0.00 | 66 | 1010.4 |
| 20260508064556 | 41 | 243 | 3.0 | 10.0 | 0.00 | 0.00 | 0.00 | 65 | 1010.4 |
| 20260508063057 | 42 | 255 | 3.0 | 10.0 | 0.00 | 0.00 | 0.00 | 65 | 1010.3 |
| 20260508061556 | 42 | 276 | 4.0 | 9.0 | 0.00 | 0.00 | 0.00 | 65 | 1010.3 |
| 20260508060056 | 42 | 264 | 4.0 | 10.0 | 0.00 | 0.00 | 0.00 | 65 | 1010.3 |
| 20260508054553 | 42 | 274 | 5.0 | 11.0 | 0.00 | 0.00 | 0.00 | 67 | 1010.3 |
| 20260508053054 | 43 | 257 | 5.0 | 11.0 | 0.00 | 0.00 | 0.00 | 67 | 1010.3 |
| 20260508051546 | 43 | 273 | 4.0 | 9.0 | 0.00 | 0.00 | 0.00 | 70 | 1010.2 |
| 20260508050042 | 41 | 250 | 2.0 | 4.0 | 0.00 | 0.00 | 0.00 | 80 | 1010.2 |
| 20260508044558 | 41 | 238 | 3.0 | 4.0 | 0.00 | 0.00 | 0.00 | 81 | 1010.2 |
| 20260508043044 | 41 | 242 | 3.0 | 5.0 | 0.00 | 0.00 | 0.00 | 80 | 1010.2 |
| 20260508041535 | 41 | 238 | 2.0 | 4.0 | 0.00 | 0.00 | 0.00 | 79 | 1010.1 |